STARLINK-34518, 64480

Orbit data source: Space-Track

STARLINK-34518, 64480 is a payload satellite owned by SpaceX/Seattle (US) in LEO that was launched on Mon, 23 Jun 2025 UTC via an FALCON 9 launch vehicle from the Air Force Eastern Test Range (AFETR). Payload-class satellites include a variety of spacecraft equipped with specific instruments for various scientific and technological missions. These include communications satellites like Starlink; space stations such as the ISS; scientific satellites like the Hubble; Earth observation satellites from companies like Planet Labs, Umbra, and HawkEye 360; GPS; miniature CubeSats for education and research; and military/defense satellites.

Loading next visibility...
Identifier
64480, 2025-133J
Orbit
LEO
Last TLE update
14 hours ago
Origin
Manufacturer
SpaceX/Seattle
Mission
Operational spacecraft
Bus & Motor
STARLINK V2MO, Unknown motor
Mass
575 kg wet, ~530 kg dry
Launch date (UTC)
2025-06-23 (1 week ago)
Launch vehicle
FALCON 9
Launch site
Air Force Eastern Test Range (AFETR)
Object type
Payload
Rocket body
Debris
Shape & HBR
Unknown
Radar Cross Section
RCS unknown

Expand to show TLE details & history

TLE from 14 hours ago
0 STARLINK-34518
1 64480U 25133J   25182.16668981 -.01115119  00000-0 -46811-2 0  9992
2 64480  53.1558 217.9660 0000959  89.7989  92.7584 15.87442522  2338
Epoch: 2025-07-01T04:00Z
TLE epoch observation values (Epoch: 2025-07-01T04:00:01.999Z)
Latitude
-2.15046°
Longitude
60.09483°
Altitude
310.713 km
Speed
7.723 km/s
True Right ascension
02h 38m 16s
True Declination
-2° 08' 12"
Sunlit
Object was in daylight at epoch
Visualization orbit readout
Latitude
-37.40897°
Longitude
90.32275°
Altitude
325.998 km
Speed
7.712 km/s
Apparent Right ascension
00h 30m 18s
Apparent Declination
-81° 50' 59"
Sunlit
Object is in daylight
Visualization observer readout
Local Sidereal Time
05:27:42
Azimuth
189.88° SSW
Elevation
-37.29°
Doppler factor
1
Orbital elements
Apogee altitude
310.361 km
Perigee altitude
309.078 km
Semi-major axis
6,687.856 km
Eccentricity
0.0001
Inclination
53.1558°
RAAN
217.966°
Arg. of periapsis
89.7989°
True anomaly
Unknown
Mean anomaly
92.7584°
Eccentric anomaly
Unknown
Mean motion
3.96838 °/min
Orbital period
90.72 mins
BSTAR
-0.0046811
Loading maneuver chart data...
Loading SW <> Apogee altitude chart data...
Loading historical data...
Loading historical data...
Loading historical data...
Loading historical data...
Loading historical data...
Loading historical data...
Loading historical data...

STARLINK-34518 Visibility forecast

Observer location: undefined°, undefined°

Span
Click to sort rows by Start time (UTC) header in descending order
Start Az.
Max El. time (UTC)
Max El. Az.
Max El.
End time (UTC)
End Az.
4 mins2025-07-02 05:08:02.519Z235.485° WSW2025-07-02 05:10:02.519Z302.566° NW43.889°2025-07-02 05:12:02.519Z45.311° ENE
4 mins2025-07-02 11:29:02.519Z321.484° NNW2025-07-02 11:31:02.519Z35.614° NE38.884°2025-07-02 11:33:02.519Z113.451° SE
|